Location: Newark
(31.5350°N, 35.0986°E)
Time: 12:56:17
(UTC+00:00)

SR - Pass Details

Date: 18 October 2019
Orbit: 574 x 882 km, 66.7° (Epoch: 16 November)

Event Time Altitude Azimuth Distance (km) Brightness Sun altitude
Rises 18:11:26 0° 153° (SSE) 2,938 - -40.3°
Reaches altitude 10° 18:15:33 10° 116° (ESE) 2,116 - -41.1°
Maximum altitude 18:16:43 11° 101° (ESE) 2,085 - -41.4°
Drops below altitude 10° 18:17:55 10° 87° (E) 2,168 - -41.6°
Sets 18:22:21 0° 52° (NE) 3,190 - -42.5°
